Location: Arborea
(39.7744°N, 8.5819°E)
Time: 02:17:33
(UTC+00:00)

Meteor 2-10 Rocket - Pass Details

Date: 24 October 2021
Orbit: 733 x 885 km, 81.2° (Epoch: 29 November)

Event Time Altitude Azimuth Distance (km) Brightness Sun altitude
Rises 17:25:48 0° 170° (S) 3,416 6.8 -10.7°
Reaches altitude 10° 17:28:20 10° 165° (SSE) 2,464 6.0 -11.2°
Maximum altitude 17:33:37 45° 94° (E) 1,108 3.9 -12.2°
Drops below altitude 10° 17:38:44 10° 22° (NNE) 2,384 5.8 -13.2°
Sets 17:41:09 0° 17° (NNE) 3,295 6.6 -13.6°
